Location: ???????
(38.3360°N, 23.6977°E)
Time: 20:54:50
(UTC+00:00)

SKYMED 2 - Pass Details

Date: 17 November 2025
Orbit: 621 x 623 km, 97.9° (Epoch: 11 December)

Event Time Altitude Azimuth Distance (km) Brightness Sun altitude
Rises 16:08:13 0° 18° (NNE) 2,908 6.7 -11.4°
Reaches altitude 10° 16:10:29 10° 23° (NNE) 1,997 5.8 -11.8°
Maximum altitude 16:14:42 50° 100° (E) 789 3.7 -12.6°
Drops below altitude 10° 16:18:54 10° 176° (S) 1,982 6.3 -13.4°
Sets 16:21:07 0° 181° (S) 2,883 7.2 -13.8°
